owner,sensor,date,latitude,longitude,air_pressure(mBar),qcFlag 
COMPS,ioos:station:USF.COMPS:NFB:1,2011-11-01T05:00:00Z,25.0840,-81.0960,1016.04,1111122 
COMPS,ioos:station:USF.COMPS:NFB:1,2011-11-01T05:06:00Z,25.0840,-81.0960,1015.97,1111122 
COMPS,ioos:station:USF.COMPS:NFB:1,2011-11-01T05:12:00Z,25.0840,-81.0960,1015.96,1111122 
COMPS,ioos:station:USF.COMPS:NFB:1,2011-11-01T05:18:00Z,25.0840,-81.0960,1015.98,1111122 
COMPS,ioos:station:USF.COMPS:NFB:1,2011-11-01T05:24:00Z,25.0840,-81.0960,1015.9,1111122 
COMPS,ioos:station:USF.COMPS:NFB:1,2011-11-01T05:30:00Z,25.0840,-81.0960,1015.81,1111122 
COMPS,ioos:station:USF.COMPS:NFB:1,2011-11-01T05:36:00Z,25.0840,-81.0960,1015.8,1111122 
COMPS,ioos:station:USF.COMPS:NFB:1,2011-11-01T05:42:00Z,25.0840,-81.0960,1015.76,1111122 
COMPS,ioos:station:USF.COMPS:NFB:1,2011-11-01T05:48:00Z,25.0840,-81.0960,1015.86,1111122 
COMPS,ioos:station:USF.COMPS:NFB:1,2011-11-01T05:54:00Z,25.0840,-81.0960,1015.93,1111122 
COMPS,ioos:station:USF.COMPS:NFB:1,2011-11-01T06:00:00Z,25.0840,-81.0960,1015.9,1111122 
COMPS,ioos:station:USF.COMPS:NFB:1,2011-11-01T09:00:00Z,25.0840,-81.0960,1015.12,1111122 
COMPS,ioos:station:USF.COMPS:NFB:1,2011-11-01T09:06:00Z,25.0840,-81.0960,1015.13,1111122 
COMPS,ioos:station:USF.COMPS:NFB:1,2011-11-01T09:12:00Z,25.0840,-81.0960,1015.16,1111122 
COMPS,ioos:station:USF.COMPS:NFB:1,2011-11-01T09:18:00Z,25.0840,-81.0960,1015.17,1111122 
COMPS,ioos:station:USF.COMPS:NFB:1,2011-11-01T09:24:00Z,25.0840,-81.0960,1015.16,1111122 
COMPS,ioos:station:USF.COMPS:NFB:1,2011-11-01T09:30:00Z,25.0840,-81.0960,1015.22,1111122 
COMPS,ioos:station:USF.COMPS:NFB:1,2011-11-01T09:36:00Z,25.0840,-81.0960,1015.3,1111122 
COMPS,ioos:station:USF.COMPS:NFB:1,2011-11-01T09:42:00Z,25.0840,-81.0960,1015.25,1111122 
COMPS,ioos:station:USF.COMPS:NFB:1,2011-11-01T09:48:00Z,25.0840,-81.0960,1015.24,1111122 
COMPS,ioos:station:USF.COMPS:NFB:1,2011-11-01T09:54:00Z,25.0840,-81.0960,1015.26,1111122 
COMPS,ioos:station:USF.COMPS:NFB:1,2011-11-01T10:00:00Z,25.0840,-81.0960,1015.3,1111122 
COMPS,ioos:station:USF.COMPS:NFB:1,2011-11-01T11:00:00Z,25.0840,-81.0960,1015.84,1111122 
COMPS,ioos:station:USF.COMPS:NFB:1,2011-11-01T11:06:00Z,25.0840,-81.0960,1015.92,1111122 
COMPS,ioos:station:USF.COMPS:NFB:1,2011-11-01T11:12:00Z,25.0840,-81.0960,1015.89,1111122 
COMPS,ioos:station:USF.COMPS:NFB:1,2011-11-01T11:18:00Z,25.0840,-81.0960,1016.01,1111122 
COMPS,ioos:station:USF.COMPS:NFB:1,2011-11-01T11:24:00Z,25.0840,-81.0960,1016.22,1111122 
COMPS,ioos:station:USF.COMPS:NFB:1,2011-11-01T11:30:00Z,25.0840,-81.0960,1016.37,1111122 
COMPS,ioos:station:USF.COMPS:NFB:1,2011-11-01T11:36:00Z,25.0840,-81.0960,1016.48,1111122 
COMPS,ioos:station:USF.COMPS:NFB:1,2011-11-01T11:42:00Z,25.0840,-81.0960,1016.53,1111122 
COMPS,ioos:station:USF.COMPS:NFB:1,2011-11-01T11:48:00Z,25.0840,-81.0960,1016.6,1111122 
COMPS,ioos:station:USF.COMPS:NFB:1,2011-11-01T11:54:00Z,25.0840,-81.0960,1016.66,1111122 
COMPS,ioos:station:USF.COMPS:NFB:1,2011-11-01T12:00:00Z,25.0840,-81.0960,1016.7,1111122 
COMPS,ioos:station:USF.COMPS:NFB:1,2011-11-01T17:00:00Z,25.0840,-81.0960,1016.85,1111122 
COMPS,ioos:station:USF.COMPS:NFB:1,2011-11-01T17:06:00Z,25.0840,-81.0960,1016.8,1111122 
COMPS,ioos:station:USF.COMPS:NFB:1,2011-11-01T17:12:00Z,25.0840,-81.0960,1016.73,1111122 
COMPS,ioos:station:USF.COMPS:NFB:1,2011-11-01T17:18:00Z,25.0840,-81.0960,1016.65,1111122 
COMPS,ioos:station:USF.COMPS:NFB:1,2011-11-01T17:24:00Z,25.0840,-81.0960,1016.56,1111122 
COMPS,ioos:station:USF.COMPS:NFB:1,2011-11-01T17:30:00Z,25.0840,-81.0960,1016.5,1111122 
COMPS,ioos:station:USF.COMPS:NFB:1,2011-11-01T17:36:00Z,25.0840,-81.0960,1016.42,1111122 
COMPS,ioos:station:USF.COMPS:NFB:1,2011-11-01T17:42:00Z,25.0840,-81.0960,1016.38,1111122 
COMPS,ioos:station:USF.COMPS:NFB:1,2011-11-01T17:48:00Z,25.0840,-81.0960,1016.33,1111122 
COMPS,ioos:station:USF.COMPS:NFB:1,2011-11-01T17:54:00Z,25.0840,-81.0960,1016.29,1111122 
COMPS,ioos:station:USF.COMPS:NFB:1,2011-11-01T18:00:00Z,25.0840,-81.0960,1016.3,1111122 
COMPS,ioos:station:USF.COMPS:NFB:1,2011-11-01T18:06:00Z,25.0840,-81.0960,1016.13,1111122 
COMPS,ioos:station:USF.COMPS:NFB:1,2011-11-01T18:12:00Z,25.0840,-81.0960,1016.06,1111122 
COMPS,ioos:station:USF.COMPS:NFB:1,2011-11-01T18:18:00Z,25.0840,-81.0960,1015.93,1111122 
COMPS,ioos:station:USF.COMPS:NFB:1,2011-11-01T18:24:00Z,25.0840,-81.0960,1015.92,1111122 
COMPS,ioos:station:USF.COMPS:NFB:1,2011-11-01T18:30:00Z,25.0840,-81.0960,1015.81,1111122 
COMPS,ioos:station:USF.COMPS:NFB:1,2011-11-01T18:36:00Z,25.0840,-81.0960,1015.76,1111122 
COMPS,ioos:station:USF.COMPS:NFB:1,2011-11-01T18:42:00Z,25.0840,-81.0960,1015.74,1111122 
COMPS,ioos:station:USF.COMPS:NFB:1,2011-11-01T18:48:00Z,25.0840,-81.0960,1015.73,1111122 
COMPS,ioos:station:USF.COMPS:NFB:1,2011-11-01T18:54:00Z,25.0840,-81.0960,1015.7,1111122 
COMPS,ioos:station:USF.COMPS:NFB:1,2011-11-01T19:00:00Z,25.0840,-81.0960,1015.7,1111122 
COMPS,ioos:station:USF.COMPS:NFB:1,2011-11-01T21:00:00Z,25.0840,-81.0960,1015.34,1111122 
COMPS,ioos:station:USF.COMPS:NFB:1,2011-11-01T21:06:00Z,25.0840,-81.0960,1015.37,1111122 
COMPS,ioos:station:USF.COMPS:NFB:1,2011-11-01T21:12:00Z,25.0840,-81.0960,1015.37,1111122 
COMPS,ioos:station:USF.COMPS:NFB:1,2011-11-01T21:18:00Z,25.0840,-81.0960,1015.44,1111122 
COMPS,ioos:station:USF.COMPS:NFB:1,2011-11-01T21:24:00Z,25.0840,-81.0960,1015.46,1111122 
COMPS,ioos:station:USF.COMPS:NFB:1,2011-11-01T21:30:00Z,25.0840,-81.0960,1015.54,1111122 
COMPS,ioos:station:USF.COMPS:NFB:1,2011-11-01T21:36:00Z,25.0840,-81.0960,1015.6,1111122 
COMPS,ioos:station:USF.COMPS:NFB:1,2011-11-01T21:42:00Z,25.0840,-81.0960,1015.53,1111122 
COMPS,ioos:station:USF.COMPS:NFB:1,2011-11-01T21:48:00Z,25.0840,-81.0960,1015.56,1111122 
COMPS,ioos:station:USF.COMPS:NFB:1,2011-11-01T21:54:00Z,25.0840,-81.0960,1015.62,1111122 
COMPS,ioos:station:USF.COMPS:NFB:1,2011-11-01T22:00:00Z,25.0840,-81.0960,1015.6,1111122 
COMPS,ioos:station:USF.COMPS:NFB:1,2011-11-01T23:00:00Z,25.0840,-81.0960,1016.26,1111122 
COMPS,ioos:station:USF.COMPS:NFB:1,2011-11-01T23:06:00Z,25.0840,-81.0960,1016.34,1111122 
COMPS,ioos:station:USF.COMPS:NFB:1,2011-11-01T23:12:00Z,25.0840,-81.0960,1016.37,1111122 
COMPS,ioos:station:USF.COMPS:NFB:1,2011-11-01T23:18:00Z,25.0840,-81.0960,1016.41,1111122 
COMPS,ioos:station:USF.COMPS:NFB:1,2011-11-01T23:24:00Z,25.0840,-81.0960,1016.53,1111122 
COMPS,ioos:station:USF.COMPS:NFB:1,2011-11-01T23:30:00Z,25.0840,-81.0960,1016.68,1111122 
COMPS,ioos:station:USF.COMPS:NFB:1,2011-11-01T23:36:00Z,25.0840,-81.0960,1016.78,1111122 
COMPS,ioos:station:USF.COMPS:NFB:1,2011-11-01T23:42:00Z,25.0840,-81.0960,1016.81,1111122 
COMPS,ioos:station:USF.COMPS:NFB:1,2011-11-01T23:48:00Z,25.0840,-81.0960,1016.9,1111122 
COMPS,ioos:station:USF.COMPS:NFB:1,2011-11-01T23:54:00Z,25.0840,-81.0960,1016.97,1111122 
COMPS,ioos:station:USF.COMPS:NFB:1,2011-11-02T00:00:00Z,25.0840,-81.0960,1017.0,1111122 
COMPS,ioos:station:USF.COMPS:NFB:1,2011-11-02T02:00:00Z,25.0840,-81.0960,1018.1,1111122 
COMPS,ioos:station:USF.COMPS:NFB:1,2011-11-02T02:06:00Z,25.0840,-81.0960,1018.13,1111122 
COMPS,ioos:station:USF.COMPS:NFB:1,2011-11-02T02:12:00Z,25.0840,-81.0960,1018.18,1111122 
COMPS,ioos:station:USF.COMPS:NFB:1,2011-11-02T02:18:00Z,25.0840,-81.0960,1018.2,1111122 
COMPS,ioos:station:USF.COMPS:NFB:1,2011-11-02T02:24:00Z,25.0840,-81.0960,1018.17,1111122 
COMPS,ioos:station:USF.COMPS:NFB:1,2011-11-02T02:30:00Z,25.0840,-81.0960,1018.16,1111122 
COMPS,ioos:station:USF.COMPS:NFB:1,2011-11-02T02:36:00Z,25.0840,-81.0960,1018.18,1111122 
COMPS,ioos:station:USF.COMPS:NFB:1,2011-11-02T02:42:00Z,25.0840,-81.0960,1018.21,1111122 
COMPS,ioos:station:USF.COMPS:NFB:1,2011-11-02T02:48:00Z,25.0840,-81.0960,1018.2,1111122 
COMPS,ioos:station:USF.COMPS:NFB:1,2011-11-02T02:54:00Z,25.0840,-81.0960,1018.24,1111122 
COMPS,ioos:station:USF.COMPS:NFB:1,2011-11-02T03:00:00Z,25.0840,-81.0960,1018.2,1111122 
COMPS,ioos:station:USF.COMPS:NFB:1,2011-11-02T05:00:00Z,25.0840,-81.0960,1017.88,1111122 
COMPS,ioos:station:USF.COMPS:NFB:1,2011-11-02T05:06:00Z,25.0840,-81.0960,1017.84,1111122 
COMPS,ioos:station:USF.COMPS:NFB:1,2011-11-02T05:12:00Z,25.0840,-81.0960,1017.81,1111122 
COMPS,ioos:station:USF.COMPS:NFB:1,2011-11-02T05:18:00Z,25.0840,-81.0960,1017.86,1111122 
COMPS,ioos:station:USF.COMPS:NFB:1,2011-11-02T05:24:00Z,25.0840,-81.0960,1017.82,1111122 
COMPS,ioos:station:USF.COMPS:NFB:1,2011-11-02T05:30:00Z,25.0840,-81.0960,1017.81,1111122 
COMPS,ioos:station:USF.COMPS:NFB:1,2011-11-02T05:36:00Z,25.0840,-81.0960,1017.74,1111122 
COMPS,ioos:station:USF.COMPS:NFB:1,2011-11-02T05:42:00Z,25.0840,-81.0960,1017.73,1111122 
COMPS,ioos:station:USF.COMPS:NFB:1,2011-11-02T05:48:00Z,25.0840,-81.0960,1017.72,1111122 
COMPS,ioos:station:USF.COMPS:NFB:1,2011-11-02T05:54:00Z,25.0840,-81.0960,1017.7,1111122 
COMPS,ioos:station:USF.COMPS:NFB:1,2011-11-02T06:00:00Z,25.0840,-81.0960,1017.7,1111122 
COMPS,ioos:station:USF.COMPS:NFB:1,2011-11-02T08:00:00Z,25.0840,-81.0960,1017.13,1111122 
COMPS,ioos:station:USF.COMPS:NFB:1,2011-11-02T08:06:00Z,25.0840,-81.0960,1017.12,1111122 
COMPS,ioos:station:USF.COMPS:NFB:1,2011-11-02T08:12:00Z,25.0840,-81.0960,1017.18,1111122 
COMPS,ioos:station:USF.COMPS:NFB:1,2011-11-02T08:18:00Z,25.0840,-81.0960,1017.13,1111122 
COMPS,ioos:station:USF.COMPS:NFB:1,2011-11-02T08:24:00Z,25.0840,-81.0960,1017.18,1111122 
COMPS,ioos:station:USF.COMPS:NFB:1,2011-11-02T08:30:00Z,25.0840,-81.0960,1017.14,1111122 
COMPS,ioos:station:USF.COMPS:NFB:1,2011-11-02T08:36:00Z,25.0840,-81.0960,1017.13,1111122 
COMPS,ioos:station:USF.COMPS:NFB:1,2011-11-02T08:42:00Z,25.0840,-81.0960,1017.17,1111122 
COMPS,ioos:station:USF.COMPS:NFB:1,2011-11-02T08:48:00Z,25.0840,-81.0960,1017.2,1111122 
COMPS,ioos:station:USF.COMPS:NFB:1,2011-11-02T08:54:00Z,25.0840,-81.0960,1017.21,1111122 
COMPS,ioos:station:USF.COMPS:NFB:1,2011-11-02T09:00:00Z,25.0840,-81.0960,1017.2,1111122 
COMPS,ioos:station:USF.COMPS:NFB:1,2011-11-02T09:06:00Z,25.0840,-81.0960,1017.17,1111122 
COMPS,ioos:station:USF.COMPS:NFB:1,2011-11-02T09:12:00Z,25.0840,-81.0960,1017.2,1111122 
COMPS,ioos:station:USF.COMPS:NFB:1,2011-11-02T09:18:00Z,25.0840,-81.0960,1017.16,1111122 
COMPS,ioos:station:USF.COMPS:NFB:1,2011-11-02T09:24:00Z,25.0840,-81.0960,1017.2,1111122 
COMPS,ioos:station:USF.COMPS:NFB:1,2011-11-02T09:30:00Z,25.0840,-81.0960,1017.25,1111122 
COMPS,ioos:station:USF.COMPS:NFB:1,2011-11-02T09:36:00Z,25.0840,-81.0960,1017.25,1111122 
COMPS,ioos:station:USF.COMPS:NFB:1,2011-11-02T09:42:00Z,25.0840,-81.0960,1017.22,1111122 
COMPS,ioos:station:USF.COMPS:NFB:1,2011-11-02T09:48:00Z,25.0840,-81.0960,1017.25,1111122 
COMPS,ioos:station:USF.COMPS:NFB:1,2011-11-02T09:54:00Z,25.0840,-81.0960,1017.26,1111122 
COMPS,ioos:station:USF.COMPS:NFB:1,2011-11-02T10:00:00Z,25.0840,-81.0960,1017.3,1111122 
COMPS,ioos:station:USF.COMPS:NFB:1,2011-11-02T11:00:00Z,25.0840,-81.0960,1018.02,1111122 
COMPS,ioos:station:USF.COMPS:NFB:1,2011-11-02T11:06:00Z,25.0840,-81.0960,1018.08,1111122 
COMPS,ioos:station:USF.COMPS:NFB:1,2011-11-02T11:12:00Z,25.0840,-81.0960,1018.24,1111122 
COMPS,ioos:station:USF.COMPS:NFB:1,2011-11-02T11:18:00Z,25.0840,-81.0960,1018.32,1111122 
COMPS,ioos:station:USF.COMPS:NFB:1,2011-11-02T11:24:00Z,25.0840,-81.0960,1018.34,1111122 
COMPS,ioos:station:USF.COMPS:NFB:1,2011-11-02T11:30:00Z,25.0840,-81.0960,1018.4,1111122 
COMPS,ioos:station:USF.COMPS:NFB:1,2011-11-02T11:36:00Z,25.0840,-81.0960,1018.45,1111122 
COMPS,ioos:station:USF.COMPS:NFB:1,2011-11-02T11:42:00Z,25.0840,-81.0960,1018.52,1111122 
COMPS,ioos:station:USF.COMPS:NFB:1,2011-11-02T11:48:00Z,25.0840,-81.0960,1018.57,1111122 
COMPS,ioos:station:USF.COMPS:NFB:1,2011-11-02T11:54:00Z,25.0840,-81.0960,1018.58,1111122 
COMPS,ioos:station:USF.COMPS:NFB:1,2011-11-02T12:00:00Z,25.0840,-81.0960,1018.6,1111122 
COMPS,ioos:station:USF.COMPS:NFB:1,2011-11-02T21:00:00Z,25.0840,-81.0960,1016.82,1111122 
COMPS,ioos:station:USF.COMPS:NFB:1,2011-11-02T21:06:00Z,25.0840,-81.0960,1016.85,1111122 
COMPS,ioos:station:USF.COMPS:NFB:1,2011-11-02T21:12:00Z,25.0840,-81.0960,1016.88,1111122 
COMPS,ioos:station:USF.COMPS:NFB:1,2011-11-02T21:18:00Z,25.0840,-81.0960,1016.88,1111122 
COMPS,ioos:station:USF.COMPS:NFB:1,2011-11-02T21:24:00Z,25.0840,-81.0960,1016.88,1111122 
COMPS,ioos:station:USF.COMPS:NFB:1,2011-11-02T21:30:00Z,25.0840,-81.0960,1016.89,1111122 
COMPS,ioos:station:USF.COMPS:NFB:1,2011-11-02T21:36:00Z,25.0840,-81.0960,1016.92,1111122 
COMPS,ioos:station:USF.COMPS:NFB:1,2011-11-02T21:42:00Z,25.0840,-81.0960,1016.96,1111122 
COMPS,ioos:station:USF.COMPS:NFB:1,2011-11-02T21:48:00Z,25.0840,-81.0960,1016.97,1111122 
COMPS,ioos:station:USF.COMPS:NFB:1,2011-11-02T21:54:00Z,25.0840,-81.0960,1017.01,1111122 
COMPS,ioos:station:USF.COMPS:NFB:1,2011-11-02T22:00:00Z,25.0840,-81.0960,1017.0,1111122 
COMPS,ioos:station:USF.COMPS:NFB:1,2011-11-03T04:00:00Z,25.0840,-81.0960,1018.93,1111122 
COMPS,ioos:station:USF.COMPS:NFB:1,2011-11-03T04:06:00Z,25.0840,-81.0960,1018.86,1111122 
COMPS,ioos:station:USF.COMPS:NFB:1,2011-11-03T04:12:00Z,25.0840,-81.0960,1018.78,1111122 
COMPS,ioos:station:USF.COMPS:NFB:1,2011-11-03T04:18:00Z,25.0840,-81.0960,1018.76,1111122 
COMPS,ioos:station:USF.COMPS:NFB:1,2011-11-03T04:24:00Z,25.0840,-81.0960,1018.7,1111122 
COMPS,ioos:station:USF.COMPS:NFB:1,2011-11-03T04:30:00Z,25.0840,-81.0960,1018.72,1111122 
COMPS,ioos:station:USF.COMPS:NFB:1,2011-11-03T04:36:00Z,25.0840,-81.0960,1018.66,1111122 
COMPS,ioos:station:USF.COMPS:NFB:1,2011-11-03T04:42:00Z,25.0840,-81.0960,1018.64,1111122 
COMPS,ioos:station:USF.COMPS:NFB:1,2011-11-03T04:48:00Z,25.0840,-81.0960,1018.61,1111122 
COMPS,ioos:station:USF.COMPS:NFB:1,2011-11-03T04:54:00Z,25.0840,-81.0960,1018.54,1111122 
COMPS,ioos:station:USF.COMPS:NFB:1,2011-11-03T05:00:00Z,25.0840,-81.0960,1018.5,1111122 
COMPS,ioos:station:USF.COMPS:NFB:1,2011-11-03T06:00:00Z,25.0840,-81.0960,1017.94,1111122 
COMPS,ioos:station:USF.COMPS:NFB:1,2011-11-03T06:06:00Z,25.0840,-81.0960,1017.92,1111122 
COMPS,ioos:station:USF.COMPS:NFB:1,2011-11-03T06:12:00Z,25.0840,-81.0960,1017.86,1111122 
COMPS,ioos:station:USF.COMPS:NFB:1,2011-11-03T06:18:00Z,25.0840,-81.0960,1017.82,1111122 
COMPS,ioos:station:USF.COMPS:NFB:1,2011-11-03T06:24:00Z,25.0840,-81.0960,1017.73,1111122 
COMPS,ioos:station:USF.COMPS:NFB:1,2011-11-03T06:30:00Z,25.0840,-81.0960,1017.68,1111122 
COMPS,ioos:station:USF.COMPS:NFB:1,2011-11-03T06:36:00Z,25.0840,-81.0960,1017.6,1111122 
COMPS,ioos:station:USF.COMPS:NFB:1,2011-11-03T06:42:00Z,25.0840,-81.0960,1017.53,1111122 
COMPS,ioos:station:USF.COMPS:NFB:1,2011-11-03T06:48:00Z,25.0840,-81.0960,1017.46,1111122 
COMPS,ioos:station:USF.COMPS:NFB:1,2011-11-03T06:54:00Z,25.0840,-81.0960,1017.5,1111122 
COMPS,ioos:station:USF.COMPS:NFB:1,2011-11-03T07:00:00Z,25.0840,-81.0960,1017.5,1111122 
COMPS,ioos:station:USF.COMPS:NFB:1,2011-11-03T07:06:00Z,25.0840,-81.0960,1017.54,1111122 
COMPS,ioos:station:USF.COMPS:NFB:1,2011-11-03T07:12:00Z,25.0840,-81.0960,1017.44,1111122 
COMPS,ioos:station:USF.COMPS:NFB:1,2011-11-03T07:18:00Z,25.0840,-81.0960,1017.44,1111122 
COMPS,ioos:station:USF.COMPS:NFB:1,2011-11-03T07:24:00Z,25.0840,-81.0960,1017.42,1111122 
COMPS,ioos:station:USF.COMPS:NFB:1,2011-11-03T07:30:00Z,25.0840,-81.0960,1017.41,1111122 
COMPS,ioos:station:USF.COMPS:NFB:1,2011-11-03T07:36:00Z,25.0840,-81.0960,1017.22,1111122 
COMPS,ioos:station:USF.COMPS:NFB:1,2011-11-03T07:42:00Z,25.0840,-81.0960,1017.29,1111122 
COMPS,ioos:station:USF.COMPS:NFB:1,2011-11-03T07:48:00Z,25.0840,-81.0960,1017.37,1111122 
COMPS,ioos:station:USF.COMPS:NFB:1,2011-11-03T07:54:00Z,25.0840,-81.0960,1017.2,1111122 
COMPS,ioos:station:USF.COMPS:NFB:1,2011-11-03T08:00:00Z,25.0840,-81.0960,1017.2,1111122 
COMPS,ioos:station:USF.COMPS:NFB:1,2011-11-03T09:00:00Z,25.0840,-81.0960,1017.29,1111122 
COMPS,ioos:station:USF.COMPS:NFB:1,2011-11-03T09:06:00Z,25.0840,-81.0960,1017.46,1111122 
COMPS,ioos:station:USF.COMPS:NFB:1,2011-11-03T09:12:00Z,25.0840,-81.0960,1017.49,1111122 
COMPS,ioos:station:USF.COMPS:NFB:1,2011-11-03T09:18:00Z,25.0840,-81.0960,1017.52,1111122 
COMPS,ioos:station:USF.COMPS:NFB:1,2011-11-03T09:24:00Z,25.0840,-81.0960,1017.49,1111122 
COMPS,ioos:station:USF.COMPS:NFB:1,2011-11-03T09:30:00Z,25.0840,-81.0960,1017.58,1111122 
COMPS,ioos:station:USF.COMPS:NFB:1,2011-11-03T09:36:00Z,25.0840,-81.0960,1017.57,1111122 
COMPS,ioos:station:USF.COMPS:NFB:1,2011-11-03T09:42:00Z,25.0840,-81.0960,1017.6,1111122 
COMPS,ioos:station:USF.COMPS:NFB:1,2011-11-03T09:48:00Z,25.0840,-81.0960,1017.62,1111122 
COMPS,ioos:station:USF.COMPS:NFB:1,2011-11-03T09:54:00Z,25.0840,-81.0960,1017.61,1111122 
COMPS,ioos:station:USF.COMPS:NFB:1,2011-11-03T10:00:00Z,25.0840,-81.0960,1017.6,1111122 
COMPS,ioos:station:USF.COMPS:NFB:1,2011-11-03T10:06:00Z,25.0840,-81.0960,1017.62,1111122 
COMPS,ioos:station:USF.COMPS:NFB:1,2011-11-03T10:12:00Z,25.0840,-81.0960,1017.65,1111122 
COMPS,ioos:station:USF.COMPS:NFB:1,2011-11-03T10:18:00Z,25.0840,-81.0960,1017.69,1111122 
COMPS,ioos:station:USF.COMPS:NFB:1,2011-11-03T10:24:00Z,25.0840,-81.0960,1017.7,1111122 
COMPS,ioos:station:USF.COMPS:NFB:1,2011-11-03T10:30:00Z,25.0840,-81.0960,1017.72,1111122 
COMPS,ioos:station:USF.COMPS:NFB:1,2011-11-03T10:36:00Z,25.0840,-81.0960,1017.72,1111122 
COMPS,ioos:station:USF.COMPS:NFB:1,2011-11-03T10:42:00Z,25.0840,-81.0960,1017.7,1111122 
COMPS,ioos:station:USF.COMPS:NFB:1,2011-11-03T10:48:00Z,25.0840,-81.0960,1017.72,1111122 
COMPS,ioos:station:USF.COMPS:NFB:1,2011-11-03T10:54:00Z,25.0840,-81.0960,1017.73,1111122 
COMPS,ioos:station:USF.COMPS:NFB:1,2011-11-03T11:00:00Z,25.0840,-81.0960,1017.7,1111122 
COMPS,ioos:station:USF.COMPS:NFB:1,2011-11-03T13:00:00Z,25.0840,-81.0960,1018.61,1111122 
COMPS,ioos:station:USF.COMPS:NFB:1,2011-11-03T13:06:00Z,25.0840,-81.0960,1018.64,1111122 
COMPS,ioos:station:USF.COMPS:NFB:1,2011-11-03T13:12:00Z,25.0840,-81.0960,1018.65,1111122 
COMPS,ioos:station:USF.COMPS:NFB:1,2011-11-03T13:18:00Z,25.0840,-81.0960,1018.69,1111122 
COMPS,ioos:station:USF.COMPS:NFB:1,2011-11-03T13:24:00Z,25.0840,-81.0960,1018.68,1111122 
COMPS,ioos:station:USF.COMPS:NFB:1,2011-11-03T13:30:00Z,25.0840,-81.0960,1018.61,1111122 
COMPS,ioos:station:USF.COMPS:NFB:1,2011-11-03T13:36:00Z,25.0840,-81.0960,1018.62,1111122 
COMPS,ioos:station:USF.COMPS:NFB:1,2011-11-03T13:42:00Z,25.0840,-81.0960,1018.58,1111122 
COMPS,ioos:station:USF.COMPS:NFB:1,2011-11-03T13:48:00Z,25.0840,-81.0960,1018.62,1111122 
COMPS,ioos:station:USF.COMPS:NFB:1,2011-11-03T13:54:00Z,25.0840,-81.0960,1018.64,1111122 
COMPS,ioos:station:USF.COMPS:NFB:1,2011-11-03T14:00:00Z,25.0840,-81.0960,1018.6,1111122 
COMPS,ioos:station:USF.COMPS:NFB:1,2011-11-03T16:00:00Z,25.0840,-81.0960,1018.09,1111122 
COMPS,ioos:station:USF.COMPS:NFB:1,2011-11-03T16:06:00Z,25.0840,-81.0960,1018.02,1111122 
COMPS,ioos:station:USF.COMPS:NFB:1,2011-11-03T16:12:00Z,25.0840,-81.0960,1017.98,1111122 
COMPS,ioos:station:USF.COMPS:NFB:1,2011-11-03T16:18:00Z,25.0840,-81.0960,1017.98,1111122 
COMPS,ioos:station:USF.COMPS:NFB:1,2011-11-03T16:24:00Z,25.0840,-81.0960,1017.93,1111122 
COMPS,ioos:station:USF.COMPS:NFB:1,2011-11-03T16:30:00Z,25.0840,-81.0960,1017.88,1111122 
COMPS,ioos:station:USF.COMPS:NFB:1,2011-11-03T16:36:00Z,25.0840,-81.0960,1017.82,1111122 
COMPS,ioos:station:USF.COMPS:NFB:1,2011-11-03T16:42:00Z,25.0840,-81.0960,1017.74,1111122 
COMPS,ioos:station:USF.COMPS:NFB:1,2011-11-03T16:48:00Z,25.0840,-81.0960,1017.6,1111122 
COMPS,ioos:station:USF.COMPS:NFB:1,2011-11-03T16:54:00Z,25.0840,-81.0960,1017.56,1111122 
COMPS,ioos:station:USF.COMPS:NFB:1,2011-11-03T17:00:00Z,25.0840,-81.0960,1017.6,1111122 
COMPS,ioos:station:USF.COMPS:NFB:1,2011-11-03T19:00:00Z,25.0840,-81.0960,1015.57,1111122 
COMPS,ioos:station:USF.COMPS:NFB:1,2011-11-03T19:06:00Z,25.0840,-81.0960,1015.53,1111122 
COMPS,ioos:station:USF.COMPS:NFB:1,2011-11-03T19:12:00Z,25.0840,-81.0960,1015.49,1111122 
COMPS,ioos:station:USF.COMPS:NFB:1,2011-11-03T19:18:00Z,25.0840,-81.0960,1015.44,1111122 
COMPS,ioos:station:USF.COMPS:NFB:1,2011-11-03T19:24:00Z,25.0840,-81.0960,1015.36,1111122 
COMPS,ioos:station:USF.COMPS:NFB:1,2011-11-03T19:30:00Z,25.0840,-81.0960,1015.29,1111122 
COMPS,ioos:station:USF.COMPS:NFB:1,2011-11-03T19:36:00Z,25.0840,-81.0960,1015.21,1111122 
COMPS,ioos:station:USF.COMPS:NFB:1,2011-11-03T19:42:00Z,25.0840,-81.0960,1015.16,1111122 
COMPS,ioos:station:USF.COMPS:NFB:1,2011-11-03T19:48:00Z,25.0840,-81.0960,1015.1,1111122 
COMPS,ioos:station:USF.COMPS:NFB:1,2011-11-03T19:54:00Z,25.0840,-81.0960,1015.04,1111122 
COMPS,ioos:station:USF.COMPS:NFB:1,2011-11-03T20:00:00Z,25.0840,-81.0960,1015.0,1111122 
COMPS,ioos:station:USF.COMPS:NFB:1,2011-11-03T21:00:00Z,25.0840,-81.0960,1014.93,1111122 
COMPS,ioos:station:USF.COMPS:NFB:1,2011-11-03T21:06:00Z,25.0840,-81.0960,1014.89,1111122 
COMPS,ioos:station:USF.COMPS:NFB:1,2011-11-03T21:12:00Z,25.0840,-81.0960,1014.9,1111122 
COMPS,ioos:station:USF.COMPS:NFB:1,2011-11-03T21:18:00Z,25.0840,-81.0960,1014.84,1111122 
COMPS,ioos:station:USF.COMPS:NFB:1,2011-11-03T21:24:00Z,25.0840,-81.0960,1014.81,1111122 
COMPS,ioos:station:USF.COMPS:NFB:1,2011-11-03T21:30:00Z,25.0840,-81.0960,1014.86,1111122 
COMPS,ioos:station:USF.COMPS:NFB:1,2011-11-03T21:36:00Z,25.0840,-81.0960,1014.89,1111122 
COMPS,ioos:station:USF.COMPS:NFB:1,2011-11-03T21:42:00Z,25.0840,-81.0960,1014.96,1111122 
COMPS,ioos:station:USF.COMPS:NFB:1,2011-11-03T21:48:00Z,25.0840,-81.0960,1015.02,1111122 
COMPS,ioos:station:USF.COMPS:NFB:1,2011-11-03T21:54:00Z,25.0840,-81.0960,1015.09,1111122 
COMPS,ioos:station:USF.COMPS:NFB:1,2011-11-03T22:00:00Z,25.0840,-81.0960,1015.1,1111122 
COMPS,ioos:station:USF.COMPS:NFB:1,2011-11-03T22:06:00Z,25.0840,-81.0960,1015.1,1111122 
COMPS,ioos:station:USF.COMPS:NFB:1,2011-11-03T22:12:00Z,25.0840,-81.0960,1015.14,1111122 
COMPS,ioos:station:USF.COMPS:NFB:1,2011-11-03T22:18:00Z,25.0840,-81.0960,1015.12,1111122 
COMPS,ioos:station:USF.COMPS:NFB:1,2011-11-03T22:24:00Z,25.0840,-81.0960,1015.12,1111122 
COMPS,ioos:station:USF.COMPS:NFB:1,2011-11-03T22:30:00Z,25.0840,-81.0960,1015.12,1111122 
COMPS,ioos:station:USF.COMPS:NFB:1,2011-11-03T22:36:00Z,25.0840,-81.0960,1015.16,1111122 
COMPS,ioos:station:USF.COMPS:NFB:1,2011-11-03T22:42:00Z,25.0840,-81.0960,1015.13,1111122 
COMPS,ioos:station:USF.COMPS:NFB:1,2011-11-03T22:48:00Z,25.0840,-81.0960,1015.18,1111122 
COMPS,ioos:station:USF.COMPS:NFB:1,2011-11-03T22:54:00Z,25.0840,-81.0960,1015.21,1111122 
COMPS,ioos:station:USF.COMPS:NFB:1,2011-11-03T23:00:00Z,25.0840,-81.0960,1015.2,1111122 
COMPS,ioos:station:USF.COMPS:NFB:1,2011-11-04T00:00:00Z,25.0840,-81.0960,1015.48,1111122 
COMPS,ioos:station:USF.COMPS:NFB:1,2011-11-04T00:06:00Z,25.0840,-81.0960,1015.5,1111122 
COMPS,ioos:station:USF.COMPS:NFB:1,2011-11-04T00:12:00Z,25.0840,-81.0960,1015.5,1111122 
COMPS,ioos:station:USF.COMPS:NFB:1,2011-11-04T00:18:00Z,25.0840,-81.0960,1015.53,1111122 
COMPS,ioos:station:USF.COMPS:NFB:1,2011-11-04T00:24:00Z,25.0840,-81.0960,1015.53,1111122 
COMPS,ioos:station:USF.COMPS:NFB:1,2011-11-04T00:30:00Z,25.0840,-81.0960,1015.61,1111122 
COMPS,ioos:station:USF.COMPS:NFB:1,2011-11-04T00:36:00Z,25.0840,-81.0960,1015.69,1111122 
COMPS,ioos:station:USF.COMPS:NFB:1,2011-11-04T00:42:00Z,25.0840,-81.0960,1015.73,1111122 
COMPS,ioos:station:USF.COMPS:NFB:1,2011-11-04T00:48:00Z,25.0840,-81.0960,1015.74,1111122 
COMPS,ioos:station:USF.COMPS:NFB:1,2011-11-04T00:54:00Z,25.0840,-81.0960,1015.76,1111122 
COMPS,ioos:station:USF.COMPS:NFB:1,2011-11-04T01:00:00Z,25.0840,-81.0960,1015.8,1111122 
COMPS,ioos:station:USF.COMPS:NFB:1,2011-11-04T01:06:00Z,25.0840,-81.0960,1015.82,1111122 
COMPS,ioos:station:USF.COMPS:NFB:1,2011-11-04T01:12:00Z,25.0840,-81.0960,1015.78,1111122 
COMPS,ioos:station:USF.COMPS:NFB:1,2011-11-04T01:18:00Z,25.0840,-81.0960,1015.77,1111122 
COMPS,ioos:station:USF.COMPS:NFB:1,2011-11-04T01:24:00Z,25.0840,-81.0960,1015.7,1111122 
COMPS,ioos:station:USF.COMPS:NFB:1,2011-11-04T01:30:00Z,25.0840,-81.0960,1015.7,1111122 
COMPS,ioos:station:USF.COMPS:NFB:1,2011-11-04T01:36:00Z,25.0840,-81.0960,1015.72,1111122 
COMPS,ioos:station:USF.COMPS:NFB:1,2011-11-04T01:42:00Z,25.0840,-81.0960,1015.72,1111122 